Lapse_Rate
4.1 4.4 4.8 4.6 4.4 3.6 3.9 3.7 3.9 3.9 3.9 3.5 3.3 3.4 3.2 3.2 3.8 4.7 6.2 6.2 6.8 7.1 7.0 6.9 6.8 6.8 6.7 6.2 5.6 5.0 4.9 4.9 4.7 4.5 4.5 4.2 4.1 4.4 4.5 4.5 4.5 4.6 4.9
4.1 4.1 4.3 4.3 4.5 4.1 3.7 3.8 4.0 4.1 3.9 3.7 3.5 2.8 2.8 2.7 3.4 4.2 5.2 6.1 6.1 6.6 6.7 6.7 6.6 6.8 6.7 6.6 5.9 5.1 4.9 4.8 4.4 4.4 4.3 4.0 4.0 4.2 4.5 4.6 4.6 4.7 4.9
3.7 4.0 4.4 4.3 4.3 3.7 3.4 2.9 2.9 3.0 3.2 2.9 3.8 2.6 2.4 2.9 3.2 3.7 4.2 5.1 5.8 5.9 6.6 6.2 6.3 6.4 6.3 6.5 6.4 6.0 5.6 5.0 4.6 4.5 4.3 4.1 4.2 4.3 4.5 4.5 4.5 4.7 4.9
3.6 3.9 4.3 4.4 3.8 3.0 3.1 3.4 3.5 3.4 3.5 3.7 3.5 2.9 2.6 2.6 3.0 3.5 3.7 4.2 4.5 5.4 5.7 5.7 5.8 5.8 6.1 6.1 6.0 6.1 6.1 5.8 5.2 4.8 4.7 4.6 4.6 4.7 4.9 5.2 5.3 5.4 5.3
3.5 3.9 4.0 4.3 3.3 3.0 3.3 3.6 2.9 3.9 3.7 3.1 3.2 2.6 2.4 3.2 3.2 3.1 3.8 3.6 3.6 3.9 4.4 4.0 3.9 4.4 5.1 5.4 5.5 5.7 5.8 5.9 5.7 5.8 5.7 5.5 5.4 5.6 6.9 7.4 7.6 7.8 7.9
3.2 3.7 3.6 3.9 3.1 3.2 3.4 3.4 3.6 2.4 3.3 3.6 3.6 2.5 2.0 2.4 2.7 3.5 3.9 3.4 3.4 3.0 3.1 2.8 3.2 3.0 3.0 3.9 4.3 4.9 5.6 6.0 6.4 6.4 6.2 6.5 6.9 6.6 8.1 9.1 9.4 9.5 9.5
2.6 2.9 3.3 3.5 2.8 3.6 3.5 3.7 3.1 2.4 2.1 2.6 3.3 2.6 2.3 2.0 2.8 3.1 3.0 3.5 3.1 2.8 2.8 2.6 2.6 2.6 2.6 2.1 2.6 3.6 4.5 5.3 6.3 6.5 7.0 7.6 8.2 9.0 9.3 9.5 9.5 9.5 9.5
1.9 2.4 2.8 2.9 2.9 3.6 3.4 3.1 1.7 0.5 2.3 2.4 4.3 3.7 4.9 4.2 3.1 2.6 2.8 3.5 3.5 2.5 2.5 2.2 2.3 2.2 2.0 2.2 2.4 2.8 3.7 4.6 5.5 6.2 6.7 7.8 9.2 9.6 9.5 9.5 9.5 9.4 9.5
1.5 2.2 1.9 3.0 3.1 3.5 2.8 2.3 1.8 1.6 2.2 1.3 1.9 4.6 3.6 5.5 3.3 2.1 2.3 2.8 2.9 2.7 2.4 1.7 1.7 1.5 1.6 2.0 2.0 2.5 3.4 3.8 4.9 5.8 6.8 7.5 9.1 9.5 9.5 9.5 9.5 9.4 9.5
1.8 1.9 2.1 1.9 1.2 2.5 3.5 2.9 2.3 2.0 1.9 1.6 0.3 0.4 0.6 2.2 4.5 4.0 2.1 2.1 2.0 2.4 2.5 1.9 2.0 1.4 1.3 1.6 1.4 2.0 2.8 3.6 4.7 5.6 5.9 7.2 8.4 9.4 9.5 9.5 9.4 9.4 9.4
1.8 1.6 1.9 1.5 1.4 1.0 2.6 2.1 1.3 1.6 1.8 1.3 1.4 -0.7 -0.1 0.4 1.0 3.5 3.2 2.2 0.9 1.5 2.2 2.2 2.0 1.7 1.1 1.4 1.9 2.1 2.7 3.7 4.3 4.8 5.4 6.2 7.3 9.1 9.4 9.4 9.4 9.4 9.4
1.6 1.5 1.7 1.5 1.4 1.1 0.3 0.2 0.6 1.5 0.8 0.9 -0.3 0.3 -0.6 2.0 1.9 2.3 2.5 1.3 2.9 1.6 1.7 1.6 1.5 1.3 0.9 1.1 1.4 2.0 2.9 3.4 3.8 4.2 4.6 5.5 7.1 9.2 9.3 9.4 9.4 9.4 9.4
0.7 0.8 1.0 1.1 1.1 0.8 0.4 -0.3 -0.1 1.0 1.1 1.0 0.9 0.1 0.5 -0.0 0.2 -0.2 1.4 0.7 2.1 1.5 1.7 1.9 1.8 1.4 1.2 1.2 1.7 2.8 2.5 3.3 3.5 3.7 4.2 5.0 5.8 6.3 6.8 8.2 9.2 9.3 9.4
2.6 2.4 1.1 1.1 0.9 0.5 -0.1 -0.6 -0.6 1.0 1.1 0.8 0.7 0.4 0.0 -0.6 -0.9 0.1 1.2 1.3 1.7 2.3 0.8 2.8 0.8 1.3 1.8 2.0 2.4 3.0 3.6 2.9 3.0 3.4 3.9 4.2 4.5 4.9 5.5 6.7 8.1 9.3 9.4
2.8 2.0 0.9 0.7 0.3 -0.3 -0.4 -0.8 -0.5 0.3 0.6 0.4 -0.1 -0.3 0.7 -0.8 -0.7 -0.5 -0.3 0.9 3.4 3.9 3.1 1.4 2.7 1.3 2.5 2.9 3.3 4.1 3.7 3.1 3.6 4.2 4.4 4.8 5.4 5.8 6.6 7.9 9.3 9.4 9.4
2.1 1.3 1.5 1.0 -0.2 -0.5 -0.7 -0.1 -0.9 -0.2 0.6 0.3 -0.5 -0.5 -0.3 -0.1 0.3 0.2 0.4 -0.2 1.4 3.1 4.7 2.8 3.0 3.0 2.8 3.7 3.7 4.5 4.2 3.8 4.0 4.3 4.4 5.0 5.7 6.3 7.7 9.3 9.3 9.3 9.3
0.8 1.7 1.5 1.0 0.8 0.6 0.8 0.7 0.4 -0.5 -2.5 0.7 0.4 0.6 0.5 0.4 0.8 0.9 0.8 -0.0 1.5 2.7 4.2 3.5 3.2 3.0 3.0 4.3 4.3 4.2 4.4 4.6 4.3 3.6 3.9 5.2 5.6 7.1 8.9 9.2 9.3 9.3 9.4
-0.5 0.3 1.2 1.7 1.5 1.0 0.7 1.0 0.4 0.2 -0.5 0.9 0.6 0.5 0.7 1.9 0.4 0.0 1.0 1.1 2.2 3.0 4.5 5.1 3.7 3.6 4.0 4.2 4.4 4.7 4.9 4.9 5.1 4.2 4.3 4.9 6.1 6.3 6.4 6.9 7.5 9.2 9.2
0.4 1.0 2.0 1.3 1.6 1.3 1.2 1.2 0.4 0.7 1.1 0.6 0.4 1.1 1.6 1.3 0.9 0.7 0.1 3.5 3.4 4.2 2.9 4.5 5.0 4.0 4.4 4.6 5.5 5.6 5.8 5.5 4.4 3.9 4.8 5.3 5.4 5.9 6.1 6.6 8.2 8.6 8.3
2.9 3.1 2.6 1.6 0.8 1.1 1.0 0.7 0.7 0.9 0.5 0.9 1.1 1.0 0.7 1.0 1.8 2.3 1.1 0.9 1.6 2.8 3.2 4.3 5.1 5.7 6.1 6.2 6.1 6.6 6.6 6.9 6.4 5.2 5.2 4.9 5.3 5.7 5.6 6.2 6.2 6.0 5.9
2.3 1.9 1.1 0.1 -0.1 0.8 1.6 1.4 1.6 1.4 0.7 0.8 0.9 0.6 0.7 0.8 1.4 1.2 1.5 3.3 2.4 2.3 3.0 5.0 6.4 6.5 7.1 7.7 8.3 8.4 7.8 7.8 6.7 5.6 5.4 5.8 5.4 5.0 4.8 5.0 4.8 4.9 5.1
1.4 1.9 1.7 1.9 1.5 2.6 3.6 3.4 1.6 1.2 1.1 0.2 0.2 0.1 0.1 0.7 1.2 3.5 4.0 4.9 4.5 3.4 4.8 6.5 7.0 7.5 8.3 7.6 7.9 7.9 7.8 7.8 7.9 6.4 6.9 8.1 6.3 5.2 5.2 5.3 4.9 4.8 5.4
2.1 2.8 3.0 3.8 3.7 3.7 4.0 3.2 2.1 0.5 0.3 0.4 0.7 0.9 0.7 2.8 2.8 2.4 3.1 4.3 5.3 6.8 7.8 8.4 8.0 7.7 8.3 8.7 7.8 7.1 7.7 7.8 7.4 6.9 8.0 8.2 6.2 5.9 5.8 5.2 4.7 5.1 5.3
2.3 2.2 2.5 2.9 3.1 3.9 3.8 3.2 1.9 0.6 0.3 0.6 0.1 1.2 2.5 2.5 2.5 3.9 4.9 4.8 5.5 5.7 6.5 7.1 8.1 8.5 8.3 8.1 8.3 7.8 7.9 8.7 8.7 6.9 7.3 7.5 6.0 6.8 6.7 5.2 4.5 4.5 5.1
2.0 1.9 1.5 1.7 1.6 2.1 3.4 2.3 1.1 0.5 0.2 0.9 1.2 2.9 3.4 4.5 4.3 5.4 6.4 5.6 6.6 7.1 7.1 7.6 7.5 7.6 8.1 8.0 8.0 8.2 7.0 7.1 6.7 6.6 7.0 7.3 5.8 7.8 6.5 5.1 4.8 5.1 5.7
2.1 2.3 2.0 1.6 2.6 1.8 2.8 2.3 1.4 3.8 3.5 3.5 3.7 4.3 4.3 4.7 5.4 7.1 8.9 7.5 7.1 7.2 7.1 6.1 6.3 6.2 6.2 5.8 6.1 6.7 6.2 5.2 5.6 6.1 6.2 6.9 6.4 6.8 8.0 6.2 6.9 6.7 5.2
Wind_Speed
8 11 10 9 8 8 8 7 7 6 6 5 5 5 6 6 6 6 8 14 13 11 10 9 8 8 8 8 8 9 9 9 9 10 10 11 11 11 11 11 12 12 12
11 12 10 10 9 9 8 8 8 6 5 5 5 5 5 6 7 7 8 10 12 10 9 8 8 7 7 7 7 7 8 7 8 8 8 9 9 9 10 10 11 11 11
15 14 11 9 10 9 9 8 7 6 5 5 4 5 5 6 6 6 7 8 9 10 9 8 7 7 6 6 6 5 5 5 5 6 6 7 7 7 8 9 9 10 10
17 15 9 9 12 10 10 8 6 5 4 4 4 4 5 6 7 6 6 7 7 7 8 8 7 6 6 5 5 5 4 4 2 4 5 5 6 7 7 7 9 9 10
20 16 12 12 13 10 9 7 4 4 5 4 4 3 3 4 6 6 7 7 6 6 7 8 7 7 5 4 5 6 5 6 3 4 5 6 6 8 8 9 10 10 10
21 18 14 13 14 7 7 7 7 3 3 5 4 3 2 3 5 6 7 6 6 7 6 6 4 4 5 4 4 6 7 7 6 6 6 7 8 8 10 10 11 12 12
21 19 12 13 14 10 11 11 6 5 3 5 5 3 2 2 4 4 7 7 7 7 6 5 3 2 2 4 5 6 8 8 7 7 7 9 10 10 12 13 14 14 14
22 19 14 11 13 9 11 12 6 3 2 8 4 3 3 3 3 4 4 4 7 7 7 5 4 2 1 2 3 5 5 6 7 8 9 11 12 13 14 15 16 18 18
22 21 19 12 12 12 11 13 11 10 6 7 6 3 3 4 3 2 4 4 6 5 7 7 4 4 2 3 3 4 6 6 7 8 10 12 14 16 17 19 20 21 22
17 21 20 16 14 11 13 13 11 11 7 7 3 5 1 2 3 3 3 4 5 7 7 6 5 4 5 4 4 4 5 7 9 11 13 15 17 19 21 22 23 24 24
15 18 19 16 15 12 12 11 13 12 8 6 5 4 2 1 2 2 3 4 4 6 6 6 5 6 5 4 3 3 6 8 11 14 17 19 20 21 22 23 24 24 24
10 14 15 14 14 13 13 12 11 13 10 5 3 5 4 4 4 3 2 3 4 5 5 7 7 8 7 5 2 3 6 10 13 15 17 20 21 22 22 23 24 24 25
9 14 16 14 13 15 13 12 11 11 11 8 9 5 3 4 4 2 2 2 2 2 3 4 7 8 7 5 2 5 6 11 13 16 19 21 22 22 21 23 23 24 24
11 13 14 14 15 14 12 12 9 8 9 7 9 5 4 3 3 2 4 4 2 3 3 3 4 7 9 5 2 7 9 10 14 18 19 21 22 22 22 23 24 25 25
8 12 14 14 14 14 14 13 8 10 9 7 8 6 3 2 3 2 3 3 2 3 4 3 3 6 8 6 5 7 8 9 15 18 21 22 22 22 23 23 24 25 26
9 9 11 11 12 13 13 13 10 9 8 5 5 8 6 3 3 2 3 4 1 2 3 3 3 3 6 7 7 8 10 12 15 19 21 21 22 22 23 24 25 26 26
7 8 10 11 12 12 12 11 10 10 15 9 7 8 7 6 5 3 2 3 1 1 3 1 2 2 3 5 8 9 10 13 15 19 21 22 22 22 23 25 25 26 27
6 8 9 10 11 12 12 12 12 11 13 11 9 8 8 5 5 5 2 2 2 2 1 7 3 3 5 5 7 8 11 13 17 19 21 21 23 23 23 23 24 25 25
7 9 10 10 10 10 11 11 12 12 11 11 10 9 7 5 5 3 5 2 1 3 2 5 5 3 3 4 6 7 8 13 15 19 19 21 20 20 21 23 24 26 27
6 8 10 10 10 10 11 12 13 13 12 9 8 8 7 6 6 4 4 5 6 5 4 5 5 5 5 5 4 7 8 8 10 16 18 18 18 20 25 27 28 27 27
7 8 12 12 12 11 8 12 12 13 12 11 8 7 5 6 6 6 4 5 5 4 3 5 6 5 6 6 8 8 9 9 10 10 8 8 12 17 20 22 23 24 24
9 9 10 11 12 9 22 21 16 11 10 10 8 6 4 3 2 6 6 6 5 5 5 4 6 8 9 8 7 8 9 9 8 7 4 11 15 12 17 19 22 25 28
11 11 11 11 13 13 23 21 19 9 7 7 6 4 4 3 3 0 2 4 5 9 9 7 8 8 9 9 9 9 11 9 10 11 12 12 11 12 16 18 23 27 29
10 10 11 11 11 10 20 19 19 9 7 6 6 5 4 2 3 3 3 3 5 5 5 5 7 9 9 9 9 8 11 12 11 11 10 8 10 10 11 18 25 28 28
10 9 10 10 10 9 15 16 12 8 8 7 5 5 4 3 3 5 4 3 4 6 8 12 12 12 14 17 17 8 8 8 8 9 8 8 8 10 12 12 17 19 22
9 8 9 7 11 9 12 10 6 5 6 5 4 1 4 5 6 6 3 2 5 7 7 7 5 10 12 12 13 8 6 7 7 7 0 3 10 9 5 8 8 14 19
Wind_Direction
188 184 186 184 181 171 168 161 157 147 137 125 116 125 124 115 104 96 103 99 106 110 108 103 95 93 88 80 78 69 55 51 50 47 46 43 35 31 29 24 20 18 16
190 188 187 187 188 183 172 171 166 159 141 135 123 125 133 132 124 115 111 111 106 112 114 108 100 99 89 80 81 68 53 49 49 45 45 37 31 30 29 25 20 15 11
200 195 195 189 191 182 170 159 150 146 140 129 129 135 147 148 138 132 124 122 116 106 122 113 103 100 84 75 70 62 40 39 37 31 28 25 23 21 18 14 10 3 357
206 201 200 197 189 179 175 169 163 154 158 156 152 148 163 166 158 148 140 131 120 117 109 113 104 94 84 71 51 34 20 16 14 9 2 356 354 355 355 353 353 348 343
208 206 204 202 185 182 183 171 166 169 171 157 150 149 152 176 174 164 156 146 137 136 130 111 103 93 86 61 34 23 19 0 343 329 326 332 327 323 323 332 333 333 329
203 204 204 201 185 181 182 179 170 150 159 152 141 130 137 178 185 184 173 166 161 154 150 142 135 100 73 52 16 358 344 338 320 310 307 316 314 308 307 310 317 319 318
199 198 200 199 189 188 188 184 157 164 145 155 136 125 108 159 194 192 186 181 178 174 172 158 145 133 82 36 9 337 320 314 305 309 301 305 306 301 299 301 302 303 305
194 194 194 195 188 185 183 181 165 150 138 180 161 131 183 186 209 203 201 197 190 178 174 168 153 135 93 49 11 2 351 334 315 304 301 301 299 296 296 296 295 296 297
195 194 195 192 191 189 187 183 184 173 164 193 211 165 154 214 159 176 209 207 196 189 181 173 166 146 128 109 78 47 24 2 339 321 313 308 303 298 296 297 297 296 295
197 199 195 191 194 195 196 193 190 189 157 169 193 224 304 130 174 176 208 213 206 200 193 186 177 158 143 131 86 43 13 350 331 320 313 306 301 297 294 293 292 292 291
209 201 196 191 191 198 205 197 182 192 190 164 167 155 163 180 169 159 173 187 214 210 201 197 185 170 153 139 111 32 4 341 328 319 312 307 302 298 295 294 294 294 293
201 204 206 199 196 196 195 190 195 196 191 164 154 169 162 165 189 168 163 170 195 190 204 204 196 187 174 156 117 12 341 332 322 317 311 307 302 300 298 296 295 293 290
202 200 199 199 198 203 195 190 189 190 189 176 172 178 172 159 151 130 122 125 155 168 182 212 210 192 182 169 148 338 328 326 320 315 310 308 306 303 299 295 292 290 288
210 214 208 201 202 196 195 188 187 188 183 174 170 172 171 159 148 147 140 150 145 208 201 188 172 189 195 191 258 337 321 317 313 310 309 307 303 299 297 294 291 288 286
223 206 198 202 198 192 189 180 181 174 173 162 161 146 152 138 109 116 142 122 158 185 225 202 172 185 202 222 291 300 292 288 300 304 304 301 298 295 292 289 288 287 286
199 185 194 196 189 186 180 177 169 153 150 149 141 135 118 107 49 63 105 102 110 137 230 201 197 181 190 238 270 291 290 288 294 298 301 300 297 293 292 288 285 284 283
179 182 185 175 177 171 171 171 173 163 143 144 136 128 110 110 118 78 25 67 56 119 237 231 255 210 255 272 292 300 294 297 299 299 305 303 300 293 292 290 288 285 282
161 159 159 164 171 172 164 165 159 158 134 128 115 105 107 127 114 114 99 92 185 199 181 260 260 262 254 287 285 288 290 293 296 297 302 300 296 296 292 286 284 283 282
155 153 152 152 155 151 147 141 133 126 121 120 120 118 131 125 118 115 107 168 277 246 203 248 272 254 270 272 289 287 285 294 294 295 296 293 292 293 288 287 289 288 285
152 152 139 126 124 124 124 124 120 113 106 104 106 110 119 126 132 152 155 179 214 218 220 251 262 271 270 277 268 292 302 298 299 298 293 286 285 287 286 288 288 287 286
85 99 107 103 105 107 111 108 102 107 110 106 95 100 100 121 161 181 182 211 208 220 232 257 265 270 279 288 297 308 298 300 298 288 285 284 290 288 286 287 284 285 285
88 92 92 100 101 103 110 108 109 105 107 110 120 109 130 115 209 224 224 213 215 225 225 249 268 277 289 296 297 300 298 299 311 299 280 296 293 286 283 282 279 282 282
88 87 86 91 94 103 113 114 112 102 105 103 107 118 118 185 184 287 221 233 273 285 284 272 276 285 293 294 295 288 284 286 286 286 292 291 285 277 280 279 278 281 284
89 90 86 88 89 100 106 109 108 106 100 106 124 123 144 201 218 220 264 280 274 275 275 277 276 283 284 283 274 269 281 290 285 285 286 278 290 288 293 285 282 283 280
80 79 84 88 86 88 102 99 105 118 119 115 119 171 183 231 320 315 287 289 278 279 281 290 299 300 298 297 296 296 283 291 297 290 288 275 286 297 298 286 281 276 275
77 79 79 75 98 99 104 112 109 111 119 127 120 119 343 338 322 301 298 244 265 287 297 302 297 298 296 290 288 277 275 276 290 295 259 276 296 316 308 295 292 294 286